Birmingham International Airport

Airport
ICAO code: 
EGBB
IATA Code: 
BHX
Summary
ICAO Region: 
EUR
Territory: 
Location: 
Elmdon, England
Serving: 
Birmingham
Elevation: 
328 ft
Coordinates: 
Aerial View: 
52° 27' 12.906" N, 1° 44' 50.531" W
Metar
Observation
EGBB 190020Z 19004KT 160V220 8000 BKN017 04/04 Q1031
Station
Birmingham / Airport
Date/Time
2022-01-19 00:20:00
Wind direction
190°
Wind speed
04 kts
Lowest cloud amount
broken clouds
Temperature
4°C
Dew point
4°C
Humidity
100%
QNH
1031 hPa
Weather condition
n/a

Description

International airport serving Birmingham and the West Midlands conurbation.

Climatology

Temperate Marine climate/Oceanic climate (Köppen climate classification Cfb). Moderately cool summer and comparatively warm winter with a temperature range of only 14°C. Prevailing south-westerly winds from the Atlantic Ocean.

Runways

Designator Length Width Surface Rops
6/24 1315 30 ASP Yes/Yes
15/33 2605 46 ASP Yes/Yes

SKYbrary Partners:

Safety knowledge contributed by: